This demonstration page uses our WeatherBlox Daily Observations layout. Learn more.

Left ArrowRight Arrow

34.16533, -84.80231

Hourly Observations for February 15, 2015

Temp ( °F °C ) Dew Point ( °F °C ) Humidity (%) Winds ( mph kmh ) Pressure ( in mb ) Visibility ( mi km ) Precip ( " mm )
12:53 am 00:53 Mostly Clear 37 2.8 21 -6.1 52 52 NNW 10 17 30.16 1021 10 16 0.00 0.00
1:53 am 01:53 Clear 31 -0.6 8 -13.3 38 38 NNW 12 19 30.19 1022 10 16 0.00 0.00
2:53 am 02:53 Clear 28 -2.2 10 -12.2 47 47 N 9 15 30.21 1023 10 16 0.00 0.00
3:53 am 03:53 Clear 25 -3.9 4 -15.6 40 40 N 9 15 30.22 1023 10 16 0.00 0.00
4:53 am 04:53 Clear 22 -5.6 3 -16.1 44 44 N 9 15 30.25 1024 10 16 0.00 0.00
5:53 am 05:53 Clear 20 -6.7 3 -16.1 48 48 VRB 7 11 30.26 1025 10 16 0.00 0.00
6:53 am 06:53 Clear 19 -7.2 3 -16.1 49 49 VRB 7 11 30.29 1026 10 16 0.00 0.00
7:53 am 07:53 Sunny 18 -7.8 0 -17.8 45 45 VRB 7 11 30.29 1026 10 16 0.00 0.00
8:53 am 08:53 Sunny 20 -6.7 0 -17.8 41 41 N 9 15 30.32 1027 10 16 0.00 0.00
9:53 am 09:53 Sunny 22 -5.6 -2 -18.9 35 35 N 12 19 30.34 1027 10 16 0.00 0.00
10:53 am 10:53 Sunny 25 -3.9 -2 -18.9 30 30 N 10 17 30.35 1028 10 16 0.00 0.00
11:53 am 11:53 Sunny 27 -2.8 -3 -19.4 27 27 VRB 6 9 30.35 1028 10 16 0.00 0.00
12:53 pm 12:53 Sunny 30 -1.1 -3 -19.4 24 24 N 7 11 30.34 1027 10 16 0.00 0.00
1:53 pm 13:53 Mostly Sunny 33 0.6 -2 -18.9 22 22 N 7 11 30.28 1025 10 16 0.00 0.00
2:53 pm 14:53 Mostly Cloudy 34 1.1 -3 -19.4 20 20 NNW 6 9 30.27 1025 10 16 0.00 0.00
3:53 pm 15:53 Cloudy 33 0.6 -2 -18.9 22 22 VRB 5 7 30.29 1026 10 16 0.00 0.00
4:53 pm 16:53 Cloudy 33 0.6 -2 -18.9 22 22 VRB 6 9 30.28 1025 10 16 0.00 0.00
5:53 pm 17:53 Cloudy 32 0 -2 -18.9 23 23 N 8 13 30.27 1025 10 16 0.00 0.00
6:53 pm 18:53 Cloudy 30 -1.1 -1 -18.3 26 26 N 6 9 30.28 1025 10 16 0.00 0.00
7:53 pm 19:53 Mostly Clear 30 -1.1 0 -17.8 27 27 N 5 7 30.28 1025 10 16 0.00 0.00
8:53 pm 20:53 Cloudy 30 -1.1 0 -17.8 27 27 NNW 3 6 30.29 1026 10 16 0.00 0.00
9:53 pm 21:53 Partly Cloudy 29 -1.7 0 -17.8 28 28 Calm 30.29 1026 10 16 0.00 0.00
10:53 pm 22:53 Mostly Cloudy 29 -1.7 0 -17.8 28 28 N 3 6 30.27 1025 10 16 0.00 0.00
11:53 pm 23:53 Cloudy 30 -1.1 1 -17.2 29 29 N 3 6 30.27 1025 10 16 0.00 0.00

Powered by AerisWeather